Location: Unspecified
(17.6330°N, 0.0000°E)
Time: 14:00:25
(UTC+00:00)

Courier 1B Rocket - Pass Details

Date: 25 June 2019
Orbit: 920 x 1202 km, 28.3° (Epoch: 24 August)

Event Time Altitude Azimuth Distance (km) Brightness Sun altitude
Exits shadow 04:27:27 - 286° (WNW) 3,500 7.5 -13.4°
Reaches altitude 10° 04:29:21 10° 293° (WNW) 2,899 7.1 -13.0°
Maximum altitude 04:35:38 34° 355° (N) 1,623 6.4 -11.7°
Drops below altitude 10° 04:41:32 10° 59° (ENE) 2,717 9.0 -10.5°
Sets 04:44:23 0° 69° (ENE) 3,628 10.2 -9.9°
